Regional Weather Roundup
Issued by NWS

Home | Current Version | Previous Version | Text Only | Print | Product List | Glossary Off
Versions: 1 2 3 4 5 6 7 8 9 10 11 12 13 14 15 16 17 18 19 20 21 22 23 24 25 26 27 28 29 30 31 32 33 34 35 36 37 38 39 40 41 42 43 44 45 46 47 48 49 50

418
ASUS45 KBOU 311107
RWRCO

WEATHER ROUNDUP FOR COLORADO
NATIONAL WEATHER SERVICE DENVER/BOULDER CO
500 AM MDT TUE MAY 31 2016

NOTE: "FAIR" INDICATES FEW OR NO CLOUDS BELOW 12000 FEET WITH NO
SIGNIFICANT WEATHER AND/OR OBSTRUCTIONS TO VISIBILITY.

COZ001>005-013-030-031-311200-
...NORTHWEST COLORADO...

CITY           SKY/WX    TMP DP  RH WIND       PRES   REMARKS
CRAIG          FAIR      41  35  79 SE3       30.13R
HAYDEN         FAIR      43  32  65 S3        30.14R
MEEKER         FAIR      41  34  76 NE3       30.14R
MOUNT WERNER   NOT AVBL
STEAMBOAT SPGS FAIR      40  35  84 CALM      30.15S
WALDEN         NOT AVBL
$$

COZ006>008-011-311200-
...WEST CENTRAL VALLEYS...

CITY           SKY/WX    TMP DP  RH WIND       PRES   REMARKS
GRAND JUNCTION FAIR      55  34  45 S9        30.03R
MONTROSE       FAIR      43  33  68 S5        30.10R
EAGLE          FAIR      37  34  87 E6        30.20R
RIFLE          FAIR      42  33  70 CALM      30.11R
DELTA          FAIR      49  34  56 CALM      30.07R
NUCLA          FAIR      46  30  53 E9        30.10R
$$

COZ017>023-064>068-311200-
...SOUTHWEST COLORADO...

CITY           SKY/WX    TMP DP  RH WIND       PRES   REMARKS
DURANGO        FAIR      37  27  67 N3        30.07R
CORTEZ         FAIR      38  29  70 NE8       30.04R
PAGOSA SPRINGS FAIR      42  26  55 CALM      30.14R
TELLURIDE      FAIR      39  26  61 E8        30.24R
WOLF CREEK PAS CLOUDY    36  19  51 NE16      30.39S
$$

COZ009-010-012-014-032>034-037-058>063-311200-
...CENTRAL COLORADO...

CITY           SKY/WX    TMP DP  RH WIND       PRES   REMARKS
ASPEN          FAIR      36  30  79 CALM      30.19R
BUENA VISTA    FAIR      40  29  63 NW8       30.20S
COPPER MTN     NOT AVBL
BERTHOUD PASS  FAIR      28  19  69 W8        30.38S WCI  20
COTTONWOOD PAS FAIR      46  21  36 W7        30.27S
GUNNISON       FAIR      36  27  69 CALM      30.24S
KREMMLING      FAIR      32  30  93 CALM      30.21S
LEADVILLE      FAIR      29  23  78 CALM      30.27S
MONARCH PASS   FAIR      34  21  60 MISG      30.46R
SALIDA         FAIR      40  31  72 W3        30.27R
SUNLIGHT       FAIR      37  28  70 NE3       30.34S
WILKERSON PASS FAIR      36  28  75 CALM      30.36S
$$

COZ069>075-311200-
...SAN LUIS VALLEY/SANGRE DE CRISTO MOUNTAINS...

CITY           SKY/WX    TMP DP  RH WIND       PRES   REMARKS
ALAMOSA        FAIR      38  33  82 W5        30.15S
LA VETA PASS   FAIR      39  32  75 N6        30.28S
SAGUACHE       FAIR      41  30  65 N9        30.17S
$$

COZ035-036-038>040-311200-
...NORTHERN COLORADO FRONT RANGE...

CITY           SKY/WX    TMP DP  RH WIND       PRES   REMARKS
DENVER INTL AP CLOUDY    47  42  83 N6        30.18R
DMNS CITY PARK   N/A     49  38  66 N13       30.19R
AURORA         DRIZZLE   46  45  98 N7        30.20R
FRONT RANGE AP NOT AVBL
ERIE MUNI ARPT CLOUDY    51  40  67 CALM      30.18S
BOULDER MUN AP CLOUDY    52  41  66 SW5       30.18S
CENTENNIAL     CLOUDY    48  40  73 N8        30.19S
BROOMFIELD     CLOUDY    50  39  66 NE5       30.20S
FORT COLLINS   FAIR      52  37  58 NE5       30.17R
LONGMONT       CLOUDY    53  46  76 S3        30.18F
$$

COZ041-046-047-076>085-087-088-311200-
...PIKES PEAK/PALMER DIVIDE AND SOUTHERN FOOTHILLS...

CITY           SKY/WX    TMP DP  RH WIND       PRES   REMARKS
COLO. SPRINGS  CLOUDY    50  44  80 N17       30.18R
A. F. ACADEMY  CLOUDY    46  43  87 N17       30.18R
SCHRIEVER AFB  NOT AVBL
ELLICOTT       NOT AVBL
FALCON         CLOUDY    46  45  96 N14       30.20R
FORT CARSON    FAIR      51  45  79 N20G33    30.13R
LIMON          CLOUDY    48  47  96 VRB3      30.14R
MONUMENT HILL  LGT RAIN  41  41 100 N8        30.22S
TRINIDAD       FAIR      47  40  76 W7        30.08R
$$

COZ042>045-048>051-090-091-311200-
...NORTHEAST COLORADO...

CITY           SKY/WX    TMP DP  RH WIND       PRES   REMARKS
GREELEY ARPT   CLOUDY    52  37  58 N6        30.16S
AKRON          FAIR      47  45  93 N9        30.12R
BURLINGTON     FAIR      52  47  83 N7        30.07R
WRAY           NOT AVBL
STERLING       MOCLDY    50  48  93 NW5       30.10R
HOLYOKE        NOT AVBL
FORT MORGAN    CLOUDY    50  43  77 N7        30.15R
$$

COZ086-089-092>099-311200-
...SOUTHEAST COLORADO...

CITY           SKY/WX    TMP DP  RH WIND       PRES   REMARKS
PUEBLO         FAIR      57  43  59 N25G33    30.07R
LA JUNTA       FAIR      54  47  77 N10       30.03R
LAMAR          FAIR      58  49  72 N12       29.98R
SPRINGFIELD      N/A     56  53  90 S12       30.01R
$$




USA.gov is the U.S. government's official web portal to all federal, state and local government web resources and services.